Wink, TX

8:42 AM CST on December 04, 2016 (GMT -0600)
Winkler County

Weather History for KINK - September, 2011

Change the Weather History Date:

Thursday, September 29, 2011

  Actual Average Record
Temperature  
Mean Temperature 80 °F -  
Max Temperature 96 °F 85 °F 103 °F (1977)
Min Temperature 64 °F 55 °F 41 °F (1996)
Cooling Degree Days 14    
Growing Degree Days 30 (Base 50)    
Moisture  
Dew Point 48 °F    
Average Humidity 38    
Maximum Humidity 65    
Minimum Humidity 15    
Precipitation  
Precipitation 0.01 in - - ()
Sea Level Pressure  
Sea Level Pressure 29.92 in    
Wind  
Wind Speed 7 mph (SE)    
Max Wind Speed 21 mph    
Max Gust Speed 34 mph    
Visibility 10 miles    
Events Rain , Thunderstorm    
Averages and records for this station are not official NWS values.
T = Trace of Precipitation, MM = Missing Value Source: NWS Daily Summary

Daily Weather History Graph

Daily Weather History Graph

Search for Another Location

Airport or City:

Trip Planner

Search our weather history database for the weather conditions in past years. The results will help you decide how hot, cold, wet, or windy it might be!

Date:

Astronomy

Sep. 29, 2011 Rise Set
Actual Time 7:45 AM CDT 7:40 PM CDT
Civil Twilight 7:20 AM CDT 8:04 PM CDT
Nautical Twilight 6:52 AM CDT 8:33 PM CDT
Astronomical Twilight 6:24 AM CDT 9:01 PM CDT
Moon 10:18 AM CDT (9/29) 9:11 PM CDT (9/29)
Length of Visible Light 12h 43m
Length of Day
11h 55m
Waxing Crescent, 7% of the Moon is Illuminated
Sep 29
Waxing Crescent
Oct 3
First Quarter
Oct 11
Full
Oct 19
Last Quarter
Oct 26
New

Hourly Weather History & Observations

Time (CDT) Temp. Dew Point Humidity Pressure Visibility Wind Dir Wind Speed Gust Speed Precip Events Conditions
12:53 AM 68.0 °F 53.1 °F 59% 29.85 in 10.0 mi Calm Calm - N/A   Clear
1:53 AM 70.0 °F 46.9 °F 44% 29.85 in 10.0 mi ESE 8.1 mph - N/A   Clear
2:53 AM 69.8 °F 46.4 °F 43% 30.00 in 10.0 mi SSE 8.1 mph - N/A   Clear
3:53 AM 66.9 °F 48.9 °F 52% 29.85 in 10.0 mi SSE 6.9 mph - N/A   Clear
4:53 AM 66.9 °F 52.0 °F 59% 29.84 in 10.0 mi SSE 8.1 mph - N/A   Clear
5:53 AM 66.9 °F 53.1 °F 61% 29.84 in 10.0 mi ESE 5.8 mph - N/A   Clear
6:53 AM 64.9 °F 52.0 °F 63% 29.88 in 10.0 mi ESE 5.8 mph - N/A   Clear
7:53 AM 64.0 °F 52.0 °F 65% 29.88 in 10.0 mi East 5.8 mph - N/A   Clear
8:53 AM 66.9 °F 52.0 °F 59% 29.90 in 10.0 mi NNW 4.6 mph - N/A   Clear
9:53 AM 73.9 °F 53.1 °F 48% 29.89 in 10.0 mi NNW 8.1 mph - N/A   Clear
10:53 AM 81.0 °F 51.1 °F 35% 29.89 in 10.0 mi North 5.8 mph - N/A   Clear
11:53 AM 89.1 °F 48.0 °F 24% 29.89 in 10.0 mi Variable 3.5 mph - N/A   Clear
12:53 PM 91.0 °F 45.0 °F 20% 29.89 in 10.0 mi West 3.5 mph - N/A   Clear
1:53 PM 95.0 °F 42.1 °F 16% 29.86 in 10.0 mi NE 4.6 mph - N/A   Clear
2:25 PM 91.4 °F 41.0 °F 17% 30.00 in 10.0 mi East 16.1 mph 29.9 mph 0.00 in Rain , Thunderstorm Light Thunderstorms and Rain
2:53 PM 87.8 °F 44.6 °F 22% 29.99 in 10.0 mi South 15.0 mph 26.5 mph N/A Thunderstorm Thunderstorm
3:16 PM 87.8 °F 48.2 °F 25% 29.98 in 10.0 mi SSW 9.2 mph - N/A   Clear
3:53 PM 88.0 °F 46.0 °F 23% 29.84 in 10.0 mi SSE 9.2 mph - N/A   Clear
4:53 PM 93.9 °F 41.0 °F 16% 29.81 in 10.0 mi SSE 5.8 mph - N/A   Clear
5:38 PM 95.0 °F 41.0 °F 15% 29.95 in 10.0 mi Variable 6.9 mph - N/A Thunderstorm Clear
5:53 PM 91.0 °F 42.1 °F 18% 29.84 in 10.0 mi North 19.6 mph 25.3 mph N/A Thunderstorm Scattered Clouds
6:19 PM 80.6 °F 50.0 °F 34% 29.99 in 10.0 mi NE 20.7 mph 34.5 mph 0.00 in Rain , Thunderstorm Light Thunderstorms and Rain
6:53 PM 86.0 °F 44.1 °F 23% 29.87 in 10.0 mi SSE 13.8 mph 26.5 mph 0.01 in Rain , Thunderstorm Light Rain
7:11 PM 82.4 °F 48.2 °F 30% 30.00 in 10.0 mi SSW 6.9 mph - 0.00 in   Scattered Clouds
7:53 PM 78.8 °F 51.8 °F 39% 30.02 in 10.0 mi SSE 12.7 mph - N/A   Partly Cloudy
8:53 PM 75.0 °F 55.0 °F 50% 29.94 in 10.0 mi SW 4.6 mph - N/A   Partly Cloudy
9:53 PM 79.0 °F 46.9 °F 32% 29.96 in 10.0 mi WNW 6.9 mph - N/A   Scattered Clouds
10:53 PM 78.8 °F 51.8 °F 39% 30.14 in 10.0 mi SSE 11.5 mph - N/A   Overcast
11:53 PM 72.0 °F 57.0 °F 59% 30.03 in 10.0 mi North 6.9 mph - 0.00 in   Mostly Cloudy